Weather History for Nagpur Sonegaon, India

Change the Weather History Date:

Sunday, May 26, 2013

  Actual Average Record
Temperature  
Mean Temperature 94 °F -  
Max Temperature 110 °F 101 °F - ()
Min Temperature 78 °F 79 °F - ()
Cooling Degree Days 29    
Growing Degree Days 44 (Base 50)    
Moisture  
Dew Point 62 °F    
Average Humidity 31    
Maximum Humidity 65    
Minimum Humidity 19    
Precipitation  
Precipitation 0.00 in 0.19 in - ()
Sea Level Pressure  
Sea Level Pressure 29.60 in    
Wind  
Wind Speed 9 mph ()    
Max Wind Speed 18 mph    
Max Gust Speed -    
Visibility 3.0 miles    
Events      
T = Trace of Precipitation, MM = Missing Value Source: Averaged Metar Reports

Daily Weather History Graph

Daily Weather History Graph

Search for Another Location

Airport:

Trip Planner

Search our weather history database for the weather conditions in past years. The results will help you decide how hot, cold, wet, or windy it might be!

Date:

Astronomy

May. 26, 2013 Rise Set
Actual Time 5:32 AM IST 6:49 PM IST
Civil Twilight 5:08 AM IST 7:13 PM IST
Nautical Twilight 4:39 AM IST 7:42 PM IST
Astronomical Twilight 4:09 AM IST 8:12 PM IST
Moon 8:11 PM IST (5/26) 6:30 AM IST (5/26)
Length of Visible Light 14h 05m
Length of Day
13h 16m
Full, 98% of the Moon is Illuminated
May 26
Full
Jun 1
Last Quarter
Jun 8
New
Jun 16
First Quarter
Jun 23
Full

Hourly Weather History & Observations

Time (IST) Temp. Heat Index Dew Point Humidity Pressure Visibility Wind Dir Wind Speed Gust Speed Precip Events Conditions
12:10 AM 95.0 °F 93.0 °F 55.4 °F 26% 29.59 in 3.1 mi NW 8.1 mph - N/A   Haze
1:10 AM 95.0 °F 92.7 °F 53.6 °F 25% 29.59 in 3.1 mi WNW 13.8 mph - N/A   Haze
2:10 AM 93.2 °F 91.3 °F 55.4 °F 28% 29.59 in 3.1 mi NW 12.7 mph - N/A   Haze
2:30 AM 96 °F - 61 °F 22% 29.50 in 1 mi WNW 11.5 mph - -   Haze
3:10 AM 95.0 °F 92.7 °F 53.6 °F 25% 29.59 in 2.5 mi WNW 11.5 mph - N/A   Haze
5:10 AM 91.4 °F 89.9 °F 57.2 °F 31% 29.59 in 2.5 mi NW 11.5 mph - N/A   Haze
5:30 AM 92 °F - 65 °F 32% 29.53 in 2 mi NW 11.5 mph - -   Haze
6:10 AM 93.2 °F 94.1 °F 62.6 °F 36% 29.62 in 2.5 mi NW 9.2 mph - N/A   Haze
7:10 AM 91.4 °F 90.7 °F 59.0 °F 34% 29.65 in 3.1 mi NW 11.5 mph - N/A   Haze
7:40 AM 89.6 °F 90.1 °F 62.6 °F 40% 29.65 in 3.1 mi NW 3.5 mph - N/A   Haze
8:10 AM 91.4 °F 93.2 °F 64.4 °F 41% 29.68 in 3.1 mi NW 3.5 mph - N/A   Haze
8:30 AM 95 °F - 73 °F 40% 29.61 in 2 mi NW 18.4 mph - -   Haze
8:40 AM 95.0 °F 104.5 °F 73.4 °F 49% 29.68 in 3.1 mi NW 18.4 mph - N/A   Haze
9:10 AM 91.4 °F 94.0 °F 66.2 °F 43% 29.68 in 3.1 mi NW 3.5 mph - N/A   Haze
9:40 AM 95.0 °F 93.7 °F 57.2 °F 28% 29.68 in 3.1 mi NW 15.0 mph - N/A   Haze
10:10 AM 78.8 °F - 66.2 °F 65% 29.68 in 3.1 mi NNW 11.5 mph - N/A   Haze
10:40 AM 96.8 °F 100.7 °F 66.2 °F 37% 29.68 in 3.1 mi NW 12.7 mph - N/A   Haze
11:10 AM 100.4 °F 103.6 °F 64.4 °F 31% 29.68 in 3.1 mi NNW 12.7 mph - N/A   Haze
11:30 AM 106 °F - 72 °F 25% 29.57 in 2 mi NW 13.8 mph - -   Haze
11:40 AM 100.4 °F 104.9 °F 66.2 °F 33% 29.65 in 3.1 mi NW 12.7 mph - N/A   Haze
12:10 PM 102.2 °F 105.5 °F 64.4 °F 29% 29.65 in 3.7 mi NW 11.5 mph - N/A   Partly Cloudy
12:40 PM 102.2 °F 103.6 °F 60.8 °F 26% 29.65 in 3.7 mi NNW 9.2 mph - N/A   Scattered Clouds
1:10 PM 102.2 °F 104.2 °F 62.6 °F 27% 29.65 in 3.7 mi NW 9.2 mph - N/A   Scattered Clouds
1:40 PM 105.8 °F 107.5 °F 60.8 °F 23% 29.62 in 3.7 mi NW 5.8 mph - N/A   Scattered Clouds
2:10 PM 104.0 °F 105.3 °F 60.8 °F 24% 29.59 in 3.7 mi NNW 10.4 mph - N/A   Scattered Clouds
2:30 PM 109 °F - 69 °F 19% 29.49 in 2 mi NW 12.7 mph - -   Scattered Clouds
2:40 PM 104.0 °F 104.6 °F 59.0 °F 23% 29.59 in 3.7 mi NW 11.5 mph - N/A   Scattered Clouds
3:10 PM 102.2 °F 102.4 °F 59.0 °F 24% 29.56 in 3.7 mi WNW 4.6 mph - N/A   Scattered Clouds
3:40 PM 102.2 °F 102.4 °F 59.0 °F 24% 29.56 in 3.7 mi NW 5.8 mph - N/A   Scattered Clouds
4:10 PM 104.0 °F 104.6 °F 59.0 °F 23% 29.53 in 3.7 mi NW 5.8 mph - N/A   Scattered Clouds
4:40 PM 104.0 °F 104.6 °F 59.0 °F 23% 29.53 in 3.7 mi WNW 11.5 mph - N/A   Scattered Clouds
5:10 PM 102.2 °F 103.6 °F 60.8 °F 26% 29.53 in 3.7 mi WNW 12.7 mph - N/A   Scattered Clouds
5:30 PM 107 °F - 69 °F 21% 29.45 in 2 mi NW 10.4 mph - -   Scattered Clouds
5:40 PM 102.2 °F 102.4 °F 59.0 °F 24% 29.53 in 3.1 mi NW 9.2 mph - N/A   Haze
6:10 PM 100.4 °F 100.2 °F 59.0 °F 25% 29.56 in 3.1 mi WNW 10.4 mph - N/A   Haze
6:40 PM 95.0 °F 96.0 °F 62.6 °F 34% 29.56 in 3.1 mi Calm Calm - N/A   Haze
7:10 PM 93.2 °F 93.3 °F 60.8 °F 34% 29.56 in 3.1 mi East 2.3 mph - N/A   Haze
7:40 PM 93.2 °F 93.3 °F 60.8 °F 34% 29.59 in 3.1 mi ENE 2.3 mph - N/A   Haze
8:10 PM 93.2 °F 93.3 °F 60.8 °F 34% 29.59 in 3.1 mi NNE 3.5 mph - N/A   Haze
8:30 PM 96 °F - 74 °F 40% 29.54 in 2 mi NNE 2.3 mph - -   Haze
9:10 PM 93.2 °F 93.3 °F 60.8 °F 34% 29.62 in 3.1 mi NNE 2.3 mph - N/A   Haze
9:40 PM 93.2 °F 93.3 °F 60.8 °F 34% 29.62 in 3.1 mi NW 2.3 mph - N/A   Haze
10:10 PM 93.2 °F 93.3 °F 60.8 °F 34% 29.62 in 3.1 mi NW 2.3 mph - N/A   Haze
10:40 PM 91.4 °F 91.4 °F 60.8 °F 36% 29.62 in 3.1 mi Calm Calm - N/A   Haze
11:10 PM 91.4 °F 92.1 °F 62.6 °F 38% 29.62 in 3.1 mi Calm Calm - N/A   Haze
11:30 PM 94 °F - 73 °F 41% 29.55 in 2 mi NNW 3.5 mph - -   Haze